[ hide orbit diagram ]
For accurate long-term ephemerides, please instead use our Horizons system.This orbit viewer was implemented using two-body methods, and hence should not be used for determining accurate long-term trajectories (over several years or decades) or planetary encounter circumstances.
Orbital Elements at Epoch 2459200.5 (2020-Dec-17.0) TDB
Reference: JPL 9 (heliocentric ecliptic J2000)
Element | Value | Uncertainty (1-sigma) | Units |
e | .09623846044529794 | 6.9449e-08 | |
a | 2.604962171847353 | 2.9375e-08 | au |
q | 2.354264622910524 | 1.9064e-07 | au |
i | 2.783656025428305 | 6.2043e-06 | deg |
node | 261.2241211511874 | 0.00017614 | deg |
peri | 306.5044267730678 | 0.00018142 | deg |
M | 184.1066768333597 | 4.8898e-05 | deg |
tp | 2459950.821535829142 (2023-Jan-06.32153583) | 0.00021599 | TDB |
period | 1535.679399510718 4.20 | 2.5975e-05 7.112e-08 | d yr |
n | .2344239299652644 | 3.9652e-09 | deg/d |
Q | 2.855659720784182 | 3.2202e-08 | au |
|
| | Orbit Determination Parameters
Additional Information
|
[ show covariance matrix ]
Physical Parameter Table
Parameter |
Symbol |
Value |
Units |
Sigma |
Reference |
Notes |
absolute magnitude |
H |
17.4 |
|
n/a |
MPO437322 |
|
|
295917 (2008 WZ126) Discovered 2008-Nov-30 by Mt. Lemmon Survey at Mount Lemmon |
Reference: 20110912/Numbers.arc | Last Updated: 2011-09-14 |
|
[ show close-approach data ]
|